Grande Mariner — WCY6594 — position and weather

sailwx.info

Track history (hours):
 
Tides and Currents Weather Stations Pressure Air Temp Water Temp Dewpoint Dewpoint Depression Visibility Wind Speed Wind Dir Waves Ship Positions

Grande Mariner

Owner: AMERICAN CANADIAN CARIBBEAN LINE INC, WARREN, RI. More information available from US FCC via Universal Licensing System and Coast Guard Vessel Documentation Center.

Last reported at 2014-Oct-25 17:33 UTC. Time now 2014-Oct-25 18:26 UTC.
Position N 40°45' W 074°01'.

Length 56 m; draft 2 m.

Type: Passenger vessel. MMSI: 369024000.

Date/timePositionNaut miles runAvg speedWind from/ knotsBaromVisibWave heightAir tempDewpointWater temp
2014-Oct-25 17:33N 40°45' W 074°01'0 0.0
2014-Oct-25 16:33N 40°45' W 074°01'0 0.0
2014-Oct-25 15:33N 40°45' W 074°01'0 0.0
2014-Oct-25 14:33N 40°45' W 074°01'0 0.0
2014-Oct-25 13:33N 40°45' W 074°01'0 0.0
2014-Oct-25 12:33N 40°45' W 074°01'0 0.0
2014-Oct-25 11:33N 40°45' W 074°01'0 0.0
2014-Oct-25 10:33N 40°45' W 074°01'0 0.0
2014-Oct-25 09:28N 40°45' W 074°01'0 0.0
2014-Oct-25 08:33N 40°45' W 074°01'0 0.0
2014-Oct-25 07:33N 40°45' W 074°01'0 0.0
2014-Oct-25 06:33N 40°45' W 074°01'0 0.0
2014-Oct-25 05:34N 40°45' W 074°01'0 0.0
2014-Oct-25 04:33N 40°45' W 074°01'0 0.0
2014-Oct-25 03:33N 40°45' W 074°01'0 0.0
2014-Oct-25 02:33N 40°45' W 074°01'0 0.0
2014-Oct-25 01:33N 40°45' W 074°01'0 0.0
2014-Oct-25 00:33N 40°45' W 074°01'4 3.8
2014-Oct-24 23:33N 40°41' W 074°02'4 3.8
2014-Oct-24 22:33N 40°45' W 074°01'0 0.0
2014-Oct-24 21:33N 40°45' W 074°01'0 0.0
2014-Oct-24 20:33N 40°45' W 074°01'0 0.0
2014-Oct-24 19:33N 40°45' W 074°01'0 0.0
2014-Oct-24 18:33N 40°45' W 074°01'0 0.0
2014-Oct-24 17:33N 40°45' W 074°01'0 0.0
2014-Oct-24 16:33N 40°45' W 074°01'0 0.0
2014-Oct-24 15:33N 40°45' W 074°01'0 0.0
2014-Oct-24 14:33N 40°45' W 074°01'0 0.0
2014-Oct-24 13:33N 40°45' W 074°01'0 0.0
2014-Oct-24 12:33N 40°45' W 074°01'0 0.0
2014-Oct-24 11:33N 40°45' W 074°01'0 0.0
2014-Oct-24 10:33N 40°45' W 074°01'0 0.0
2014-Oct-24 09:34N 40°45' W 074°01'0 0.0
2014-Oct-24 08:33N 40°45' W 074°01'0 0.0
2014-Oct-24 07:33N 40°45' W 074°01'0 0.0
2014-Oct-24 06:34N 40°45' W 074°01'0 0.0
2014-Oct-24 05:33N 40°45' W 074°01'0 0.0
2014-Oct-24 04:33N 40°45' W 074°01'0 0.0
2014-Oct-24 03:34N 40°45' W 074°01'0 0.0
2014-Oct-24 02:34N 40°45' W 074°01'2 1.6
2014-Oct-24 01:33N 40°46' W 073°60'  
2014-Oct-19 04:12N 44°03' W 076°25'6 9.6
2014-Oct-19 03:33N 44°08' W 076°21'124 3.0
2014-Oct-17 10:18N 45°17' W 073°56'2 1.9
2014-Oct-17 09:27N 45°19' W 073°55'6 7.2
2014-Oct-17 08:33N 45°23' W 073°48'8 7.6
2014-Oct-17 07:33N 45°24' W 073°38'5 4.9
2014-Oct-17 06:33N 45°25' W 073°31'5 4.7
2014-Oct-17 05:33N 45°30' W 073°31'2 2.2
2014-Oct-17 04:33N 45°32' W 073°32'1 0.1
2014-Oct-16 16:31N 45°31' W 073°33'7 6.9
2014-Oct-16 15:33N 45°37' W 073°30'8 7.6
2014-Oct-16 14:33N 45°44' W 073°25'8 8.0
2014-Oct-16 13:33N 45°50' W 073°17'34 7.7
2014-Oct-16 09:07N 46°15' W 072°43'5 8.5
2014-Oct-16 08:33N 46°17' W 072°37'8 8.1
2014-Oct-16 07:33N 46°22' W 072°28'8 8.2
2014-Oct-16 06:33N 46°26' W 072°18'  
Track history (hours):
 
Tides and Currents Weather Stations Pressure Air Temp Water Temp Dewpoint Dewpoint Depression Visibility Wind Speed Wind Dir Waves Ship Positions

Grande Mariner

Owner: AMERICAN CANADIAN CARIBBEAN LINE INC, WARREN, RI. More information available from US FCC via Universal Licensing System and Coast Guard Vessel Documentation Center.

Last reported at 2014-Oct-25 17:33 UTC. Time now 2014-Oct-25 18:26 UTC.
Position N 40°45' W 074°01'.

Length 56 m; draft 2 m.

Type: Passenger vessel. MMSI: 369024000.

Date/timePositionNaut miles runAvg speedWind from/ knotsBaromVisibWave heightAir tempDewpointWater temp
2014-Oct-25 17:33N 40°45' W 074°01'0 0.0
2014-Oct-25 16:33N 40°45' W 074°01'0 0.0
2014-Oct-25 15:33N 40°45' W 074°01'0 0.0
2014-Oct-25 14:33N 40°45' W 074°01'0 0.0
2014-Oct-25 13:33N 40°45' W 074°01'0 0.0
2014-Oct-25 12:33N 40°45' W 074°01'0 0.0
2014-Oct-25 11:33N 40°45' W 074°01'0 0.0
2014-Oct-25 10:33N 40°45' W 074°01'0 0.0
2014-Oct-25 09:28N 40°45' W 074°01'0 0.0
2014-Oct-25 08:33N 40°45' W 074°01'0 0.0
2014-Oct-25 07:33N 40°45' W 074°01'0 0.0
2014-Oct-25 06:33N 40°45' W 074°01'0 0.0
2014-Oct-25 05:34N 40°45' W 074°01'0 0.0
2014-Oct-25 04:33N 40°45' W 074°01'0 0.0
2014-Oct-25 03:33N 40°45' W 074°01'0 0.0
2014-Oct-25 02:33N 40°45' W 074°01'0 0.0
2014-Oct-25 01:33N 40°45' W 074°01'0 0.0
2014-Oct-25 00:33N 40°45' W 074°01'4 3.8
2014-Oct-24 23:33N 40°41' W 074°02'4 3.8
2014-Oct-24 22:33N 40°45' W 074°01'0 0.0
2014-Oct-24 21:33N 40°45' W 074°01'0 0.0
2014-Oct-24 20:33N 40°45' W 074°01'0 0.0
2014-Oct-24 19:33N 40°45' W 074°01'0 0.0
2014-Oct-24 18:33N 40°45' W 074°01'0 0.0
2014-Oct-24 17:33N 40°45' W 074°01'0 0.0
2014-Oct-24 16:33N 40°45' W 074°01'0 0.0
2014-Oct-24 15:33N 40°45' W 074°01'0 0.0
2014-Oct-24 14:33N 40°45' W 074°01'0 0.0
2014-Oct-24 13:33N 40°45' W 074°01'0 0.0
2014-Oct-24 12:33N 40°45' W 074°01'0 0.0
2014-Oct-24 11:33N 40°45' W 074°01'0 0.0
2014-Oct-24 10:33N 40°45' W 074°01'0 0.0
2014-Oct-24 09:34N 40°45' W 074°01'0 0.0
2014-Oct-24 08:33N 40°45' W 074°01'0 0.0
2014-Oct-24 07:33N 40°45' W 074°01'0 0.0
2014-Oct-24 06:34N 40°45' W 074°01'0 0.0
2014-Oct-24 05:33N 40°45' W 074°01'0 0.0
2014-Oct-24 04:33N 40°45' W 074°01'0 0.0
2014-Oct-24 03:34N 40°45' W 074°01'0 0.0
2014-Oct-24 02:34N 40°45' W 074°01'2 1.6
2014-Oct-24 01:33N 40°46' W 073°60'  
2014-Oct-19 04:12N 44°03' W 076°25'6 9.6
2014-Oct-19 03:33N 44°08' W 076°21'124 3.0
2014-Oct-17 10:18N 45°17' W 073°56'2 1.9
2014-Oct-17 09:27N 45°19' W 073°55'6 7.2
2014-Oct-17 08:33N 45°23' W 073°48'8 7.6
2014-Oct-17 07:33N 45°24' W 073°38'5 4.9
2014-Oct-17 06:33N 45°25' W 073°31'5 4.7
2014-Oct-17 05:33N 45°30' W 073°31'2 2.2
2014-Oct-17 04:33N 45°32' W 073°32'1 0.1
2014-Oct-16 16:31N 45°31' W 073°33'7 6.9
2014-Oct-16 15:33N 45°37' W 073°30'8 7.6
2014-Oct-16 14:33N 45°44' W 073°25'8 8.0
2014-Oct-16 13:33N 45°50' W 073°17'34 7.7
2014-Oct-16 09:07N 46°15' W 072°43'5 8.5
2014-Oct-16 08:33N 46°17' W 072°37'8 8.1
2014-Oct-16 07:33N 46°22' W 072°28'8 8.2
2014-Oct-16 06:33N 46°26' W 072°18'  

Dump ship's entire track history